Location: Unspecified
(0.0000°N, 0.0000°E)
Time: 09:47:44
(UTC+00:00)

METEOR M2 - Pass Details

Date: 03 June 2024
Orbit: 818 x 826 km, 98.4° (Epoch: 19 June)

Event Time Altitude Azimuth Distance (km) Brightness Sun altitude
Rises 04:32:34 0° 28° (NNE) 3,342 ? -19.7°
Reaches altitude 10° 04:35:04 10° 36° (NE) 2,413 ? -19.2°
Maximum altitude 04:39:58 38° 103° (ESE) 1,245 ? -18.0°
Drops below altitude 10° 04:44:54 10° 169° (S) 2,426 ? -16.9°
Sets 04:47:24 0° 177° (S) 3,361 ? -16.3°
